Medicine Lodge, KS

11:43 PM CST on December 10, 2019 (GMT -0600)
Medicine Lodge

Weather History for KP28 - October, 2019

Change the Weather History Date:

Wednesday, October 23, 2019

  Actual Average Record
Temperature  
Mean Temperature 57 °F 56 °F  
Max Temperature 73 °F 68 °F 93 °F (1939)
Min Temperature 40 °F 43 °F 21 °F (1938)
Degree Days  
Heating Degree Days 8 10  
Month to date heating degree days 173 147  
Since 1 July heating degree days 173 181  
Cooling Degree Days 0 0  
Month to date cooling degree days 23 37  
Year to date cooling degree days 1837 1768  
Growing Degree Days 6 (Base 50)    
Moisture  
Dew Point 34 °F    
Average Humidity 48    
Maximum Humidity 71    
Minimum Humidity 25    
Precipitation  
Precipitation 0.00 in 0.08 in 1.15 in (1943)
Month to date precipitation 1.76 2.21  
Year to date precipitation 30.34 24.66  
Snow  
Snow 0.00 in 0.00 in - ()
Month to date snowfall 0.0 0.0  
Since 1 July snowfall 0.0 0.0  
Since 1 September snowfall 0.0 0.0  
Snow Depth 0.00 in    
Sea Level Pressure  
Sea Level Pressure 29.96 in    
Wind  
Wind Speed 7 mph (NE)    
Max Wind Speed 23 mph    
Max Gust Speed 34 mph    
T = Trace of Precipitation, MM = Missing Value Source: NWS Daily Summary

Daily Weather History Graph

Daily Weather History Graph

Search for Another Location

Airport or City:

Astronomy

Oct. 23, 2019 Rise Set
Actual Time 7:49 AM CDT 6:47 PM CDT
Civil Twilight 7:23 AM CDT 7:13 PM CDT
Nautical Twilight 6:52 AM CDT 7:43 PM CDT
Astronomical Twilight 6:22 AM CDT 8:14 PM CDT
Moon 2:19 AM CDT (10/23) 4:30 PM CDT (10/23)
Length of Visible Light 11h 50m
Length of Day
10h 57m
Waning Crescent, 26% of the Moon is Illuminated
Oct 23
Waning Crescent
Oct 27
New
Nov 4
First Quarter
Nov 12
Full
Nov 19
Last Quarter

Hourly Weather History & Observations

Time (CDT) Temp. Windchill Dew Point Humidity Pressure Visibility Wind Dir Wind Speed Gust Speed Precip Events Conditions
12:56 AM 48.9 °F - 30.0 °F 48% 29.92 in - South 5.8 mph - N/A   Unknown
1:56 AM 48.9 °F - 30.0 °F 48% 29.91 in - SSE 4.6 mph - N/A   Unknown
2:56 AM 41.0 °F - 30.0 °F 65% 29.93 in - Calm Calm - N/A   Unknown
3:56 AM 46.9 °F - 28.9 °F 50% 29.90 in - SSE 6.9 mph - N/A   Unknown
4:56 AM 46.9 °F - 28.9 °F 50% 29.88 in - SE 5.8 mph - N/A   Unknown
6:56 AM 45.0 °F 40.6 °F 30.9 °F 58% 29.87 in - ESE 8.1 mph - N/A   Unknown
7:56 AM 42.1 °F - 32.0 °F 67% 29.89 in - Calm Calm - N/A   Unknown
8:56 AM 48.0 °F - 33.1 °F 56% 29.90 in - Calm Calm - N/A   Unknown
9:56 AM 53.1 °F - 35.1 °F 50% 29.91 in - SSE 5.8 mph - N/A   Unknown
10:56 AM 57.9 °F - 35.1 °F 42% 29.91 in - Variable 4.6 mph - N/A   Unknown
11:56 AM 64.0 °F - 35.1 °F 34% 29.93 in - West 6.9 mph - N/A   Unknown
12:56 PM 71.1 °F - 34.0 °F 26% 29.91 in - NNW 11.5 mph - N/A   Unknown
1:56 PM 71.1 °F - 36.0 °F 28% 29.91 in - NNE 15.0 mph 23.0 mph N/A   Unknown
4:56 PM 66.9 °F - 37.0 °F 33% 29.95 in - North 11.5 mph - N/A   Unknown
5:56 PM 64.0 °F - 35.1 °F 34% 29.96 in - NNE 8.1 mph - N/A   Unknown
7:56 PM 55.9 °F - 37.0 °F 49% 30.05 in - NNE 8.1 mph - N/A   Unknown
8:56 PM 51.1 °F - 37.9 °F 61% 30.08 in - North 3.5 mph - N/A   Unknown
9:56 PM 51.1 °F - 37.0 °F 59% 30.10 in - Calm Calm - N/A   Unknown
10:56 PM 46.9 °F - 37.0 °F 68% 30.12 in - North 4.6 mph - N/A   Unknown
11:56 PM 46.0 °F 43.1 °F 37.0 °F 71% 30.12 in - North 5.8 mph - N/A   Unknown